Gig Harbor, WA

4:00 PM PST on February 19, 2017 (GMT -0800)
Tacoma Narrows

Weather History for KTIW - September, 2013

Change the Weather History Date:

Saturday, September 21, 2013

  Actual Average Record
Temperature  
Mean Temperature 61 °F -  
Max Temperature 69 °F 65 °F 77 °F (1999)
Min Temperature 54 °F 49 °F 46 °F (2003)
Degree Days  
Heating Degree Days 4    
Growing Degree Days 11 (Base 50)    
Moisture  
Dew Point 53 °F    
Average Humidity 83    
Maximum Humidity 96    
Minimum Humidity 52    
Precipitation  
Precipitation 0.00 in - - ()
Sea Level Pressure  
Sea Level Pressure 29.70 in    
Wind  
Wind Speed 3 mph (SSW)    
Max Wind Speed 8 mph    
Max Gust Speed -    
Visibility 9 miles    
Events Fog    
Averages and records for this station are not official NWS values.
T = Trace of Precipitation, MM = Missing Value Source: NWS Daily Summary

Daily Weather History Graph

Daily Weather History Graph

Search for Another Location

Airport or City:

Trip Planner

Search our weather history database for the weather conditions in past years. The results will help you decide how hot, cold, wet, or windy it might be!

Date:

Astronomy

Sep. 21, 2013 Rise Set
Actual Time 6:56 AM PDT 7:09 PM PDT
Civil Twilight 6:25 AM PDT 7:39 PM PDT
Nautical Twilight 5:49 AM PDT 8:15 PM PDT
Astronomical Twilight 5:12 AM PDT 8:52 PM PDT
Moon 8:09 PM PDT (9/21) 9:33 AM PDT (9/21)
Length of Visible Light 13h 14m
Length of Day
12h 13m
Waning Gibbous, 94% of the Moon is Illuminated
Sep 21
Waning Gibbous
Sep 26
Last Quarter
Oct 4
New
Oct 11
First Quarter
Oct 18
Full

Hourly Weather History & Observations

Time (PDT) Temp. Dew Point Humidity Pressure Visibility Wind Dir Wind Speed Gust Speed Precip Events Conditions
12:03 AM 57.2 °F 53.6 °F 88% 29.68 in 10.0 mi Calm Calm - N/A   Overcast
12:53 AM 57.9 °F 54.0 °F 87% 29.67 in 10.0 mi Calm Calm - N/A   Overcast
1:04 AM 57.2 °F 53.6 °F 88% 29.67 in 10.0 mi WSW 3.5 mph - N/A   Overcast
1:14 AM 57.2 °F 53.6 °F 88% 29.68 in 10.0 mi West 3.5 mph - N/A   Overcast
1:29 AM 57.2 °F 53.6 °F 88% 29.68 in 10.0 mi WSW 3.5 mph - N/A   Overcast
1:41 AM 57.2 °F 53.6 °F 88% 29.68 in 10.0 mi SW 3.5 mph - N/A   Overcast
1:53 AM 55.9 °F 53.1 °F 90% 29.67 in 10.0 mi Calm Calm - N/A   Overcast
2:11 AM 57.2 °F 53.6 °F 88% 29.68 in 10.0 mi Calm Calm - N/A   Overcast
2:39 AM 55.4 °F 51.8 °F 88% 29.67 in 10.0 mi Variable 4.6 mph - N/A   Scattered Clouds
2:53 AM 55.0 °F 52.0 °F 89% 29.67 in 10.0 mi South 6.9 mph - N/A   Clear
3:53 AM 55.0 °F 52.0 °F 89% 29.67 in 10.0 mi South 8.1 mph - N/A   Clear
4:34 AM 55.4 °F 53.6 °F 94% 29.68 in 10.0 mi SSW 6.9 mph - N/A   Scattered Clouds
4:42 AM 55.4 °F 53.6 °F 94% 29.68 in 10.0 mi SSW 5.8 mph - N/A   Mostly Cloudy
4:53 AM 55.9 °F 54.0 °F 93% 29.68 in 10.0 mi SW 5.8 mph - N/A   Overcast
5:24 AM 55.4 °F 53.6 °F 94% 29.68 in 10.0 mi SSW 5.8 mph - N/A   Scattered Clouds
5:53 AM 54.0 °F 52.0 °F 93% 29.68 in 10.0 mi South 4.6 mph - N/A   Clear
6:53 AM 54.0 °F 52.0 °F 93% 29.69 in 10.0 mi SSW 5.8 mph - N/A   Clear
7:37 AM 55.4 °F 53.6 °F 94% 29.70 in 10.0 mi SSE 3.5 mph - N/A   Mostly Cloudy
7:45 AM 55.4 °F 53.6 °F 94% 29.71 in 7.0 mi South 4.6 mph - N/A   Mostly Cloudy
7:49 AM 55.4 °F 53.6 °F 94% 29.70 in 2.5 mi South 5.8 mph - N/A   Overcast
7:53 AM 55.0 °F 53.1 °F 93% 29.70 in 0.5 mi South 4.6 mph - N/A Fog Fog
8:53 AM 55.0 °F 54.0 °F 96% 29.71 in 0.8 mi SSE 3.5 mph - N/A   Overcast
9:33 AM 55.4 °F 53.6 °F 94% 29.72 in 1.0 mi South 4.6 mph - N/A   Overcast
9:53 AM 55.9 °F 54.0 °F 93% 29.73 in 2.0 mi Calm Calm - N/A   Mostly Cloudy
10:17 AM 57.2 °F 53.6 °F 88% 29.73 in 4.0 mi Calm Calm - N/A   Scattered Clouds
10:53 AM 59.0 °F 54.0 °F 83% 29.73 in 4.0 mi West 3.5 mph - N/A   Haze
11:00 AM 60.8 °F 53.6 °F 77% 29.73 in 10.0 mi WSW 3.5 mph - N/A   Scattered Clouds
11:07 AM 60.8 °F 53.6 °F 77% 29.73 in 10.0 mi Variable 3.5 mph - N/A   Scattered Clouds
11:53 AM 63.0 °F 54.0 °F 72% 29.73 in 10.0 mi West 5.8 mph - N/A   Scattered Clouds
12:53 PM 64.0 °F 53.1 °F 67% 29.72 in 10.0 mi Calm Calm - N/A   Scattered Clouds
1:53 PM 66.0 °F 52.0 °F 60% 29.71 in 10.0 mi Calm Calm - N/A   Scattered Clouds
2:53 PM 68.0 °F 50.0 °F 52% 29.70 in 10.0 mi West 4.6 mph - N/A   Scattered Clouds
3:53 PM 68.0 °F 51.1 °F 55% 29.70 in 10.0 mi WNW 6.9 mph - N/A   Scattered Clouds
4:53 PM 66.0 °F 51.1 °F 59% 29.70 in 10.0 mi West 8.1 mph - N/A   Scattered Clouds
5:53 PM 64.9 °F 48.0 °F 54% 29.70 in 10.0 mi SW 4.6 mph - N/A   Clear
6:53 PM 62.1 °F 51.1 °F 67% 29.72 in 10.0 mi SSW 5.8 mph - N/A   Clear
7:53 PM 60.1 °F 51.1 °F 72% 29.72 in 10.0 mi South 6.9 mph - N/A   Clear
8:53 PM 59.0 °F 51.1 °F 75% 29.73 in 10.0 mi South 4.6 mph - N/A   Clear
9:53 PM 57.9 °F 53.1 °F 84% 29.73 in 10.0 mi South 5.8 mph - N/A   Mostly Cloudy
10:53 PM 59.0 °F 53.1 °F 81% 29.73 in 10.0 mi South 4.6 mph - N/A   Overcast
11:20 PM 59.0 °F 53.6 °F 82% 29.73 in 10.0 mi South 5.8 mph - N/A   Overcast
11:34 PM 59.0 °F 53.6 °F 82% 29.73 in 10.0 mi SSW 4.6 mph - N/A   Overcast
11:53 PM 59.0 °F 53.1 °F 81% 29.73 in 10.0 mi SSW 5.8 mph - N/A   Overcast